Regional Weather Roundup
Issued by NWS

Home | Current Version | Previous Version | Text Only | Print | Product List | Glossary On
Versions: 1 2 3 4 5 6 7 8 9 10 11 12 13 14 15 16 17 18 19 20 21 22 23 24 25 26 27
000
ASUS45 KPSR 292110
RWRAZ

ARIZONA HOURLY REGIONAL WEATHER ROUNDUP
NATIONAL WEATHER SERVICE PHOENIX AZ
200 PM MST SUN MAY 29 2016

NOTE: FAIR INDICATES FEW OR NO CLOUDS BELOW 12,000 FEET WITH NO
SIGNIFICANT WEATHER AND/OR OBSTRUCTIONS TO VISIBILITY.

AZZ001>003-036-292200-
NORTHWEST ARIZONA

CITY           SKY/WX    TMP DP  RH WIND       PRES   REMARKS
BULLHEAD CITY  SUNNY     91  28  10 MISG      29.85F
KINGMAN        SUNNY     84  24  11 VRB6      29.99F
$$

AZZ004>008-015-016-018-292200-
NORTH CENTRAL ARIZONA

CITY           SKY/WX    TMP DP  RH WIND       PRES   REMARKS
GRAND CANYON   MOSUNNY   77  16  10 S3G21     30.15F
WILLIAMS       SUNNY     72  18  13 S14G24    30.25S
PRESCOTT       SUNNY     79  11   7 SE21G26   30.08F
FLAGSTAFF      SUNNY     69  18  14 SW12G20   30.20F
PAYSON         SUNNY     81  14   8 S10G18    30.13S
PAGE           SUNNY     87   5   4 S9G18     29.99F
$$

AZZ009>014-017-292200-
NORTHEAST ARIZONA

CITY           SKY/WX    TMP DP  RH WIND       PRES   REMARKS
WINSLOW        SUNNY     86  14   7 S18G24    30.05F
SAINT JOHNS    SUNNY     81  12   7 SE7       30.09F
WINDOW ROCK    SUNNY     77  17  10 S13G20    30.17F
SHOW LOW       SUNNY     73   7   7 SW17G26   30.18S
$$

AZZ023-292200-
GREATER PHOENIX AREA

CITY           SKY/WX    TMP DP  RH WIND       PRES   REMARKS
PHOENIX        SUNNY     94  20   7 S8G22     29.86F
BUCKEYE        SUNNY     91  23   8 SE5       29.88F
GLENDALE       SUNNY     93  18   6 SE6       29.88F
LUKE AFB       SUNNY     95  22   7 SE7       29.85F
DEER VALLEY    SUNNY     91  27  10 S6G17     29.88F
SCOTTSDALE     SUNNY     93  25   8 S12       29.90F
MESA-FALCON    SUNNY    N/A N/A N/A SE7       29.86F
MESA-GATEWAY   SUNNY     91  25   9 VRB6      29.89F
CHANDLER       SUNNY     93  23   8 S6        29.88F
$$

AZZ027-028-292200-
SOUTHWEST MARICOPA COUNTY AND PINAL COUNTY

CITY           SKY/WX    TMP DP  RH WIND       PRES   REMARKS
CASA GRANDE    SUNNY     93  30  10 SE6       29.90F
GILA BEND      FAIR      96  18   6 SW12G17   29.84F
$$

AZZ503-504-507>509-292200-
SOUTHEAST ARIZONA

CITY           SKY/WX    TMP DP  RH WIND       PRES   REMARKS
TUCSON         SUNNY     93  15   6 CALM      29.95F
DAVIS-MONTHAN  SUNNY     91  16   6 VRB1      29.94F
RYAN FIELD     SUNNY     93  14   5 S20G28    29.94F
NOGALES        SUNNY     89  15   6 SW8G18    30.03F
SIERRA VISTA   SUNNY     86  14   7 S16G25    30.08F
DOUGLAS        SUNNY     88  28  11 SW17G23   30.03F
SAFFORD        SUNNY     93  16   6 S14G23    29.95F
$$

AZZ020-021-025-026-031-292200-
SOUTHWEST ARIZONA

CITY           SKY/WX    TMP DP  RH WIND       PRES   REMARKS
YUMA           SUNNY     89  33  13 SE10      29.86F
$$

CAZ031-033-041-043-047-048-061-292200-
SOUTHERN CALIFORNIA

CITY           SKY/WX    TMP DP  RH WIND       PRES   REMARKS
DOWNTOWN L.A.  CLOUDY    70  54  56 VRB3      29.99F
L.A. AIRPORT   MOSUNNY   67  53  61 W16       30.01S
SAN DIEGO      CLOUDY    67  54  63 W8        30.02F
BURBANK        MOSUNNY   69  53  56 E7        29.99F
ONTARIO        PTSUNNY   67  52  58 W6        30.00S
RIVERSIDE      CLOUDY    68  52  56 W3        30.00F
PALM SPRINGS   SUNNY     89  45  21 E9        29.88F
EL CENTRO NAS  SUNNY     88  49  25 S7        29.86F
IMPERIAL       SUNNY     91  49  23 NE9       29.84F
BLYTHE         SUNNY     90  33  13 S3G17     29.86F
NEEDLES        SUNNY     94  21   7 S14G28    29.87F
$$

NVZ020-UTZ003-292200-
SOUTHERN NEVADA-UTAH

CITY           SKY/WX    TMP DP  RH WIND       PRES   REMARKS
LAS VEGAS      MOSUNNY   91  23   8 E9        29.86F
SALT LAKE CITY PTSUNNY   77  40  26 N8        30.03S THUNDER
$$

NMZ009-TXZ055-292200-
NEW MEXICO-WEST TEXAS

CITY           SKY/WX    TMP DP  RH WIND       PRES   REMARKS
ALBUQUERQUE    MOSUNNY   85  15   7 W15       30.09F
EL PASO        MOSUNNY   92  19   7 VRB6      30.03F
$$


........................KEY........................
SKY/WX - SKY CONDITION/WEATHER
TMP    - TEMPERATURE IN FAHRENHEIT
DP     - DEW POINT IN FAHRENHEIT
RH     - RELATIVE HUMIDITY IN PERCENT
WIND   - DIRECTION AND SPEED IN MILES PER HOUR (MPH)
VRB    - VARIABLE WIND DIRECTION
PRES   - MEAN SEA LEVEL PRESSURE IN INCHES OF MERCURY
         F - FALLING PRESSURE   R - RISING PRESSURE
         S - STEADY PRESSURE
VSB    - VISIBILITY IN MILES
HX     - HEAT INDEX IN FAHRENHEIT
WCI    - WIND CHILL INDEX IN FAHRENHEIT
TC     - TEMPERATURE IN CELSIUS WHICH IS ALSO KNOWN AS
         TEMPERATURE IN CENTIGRADE
AFB    - AIR FORCE BASE
         LUKE AFB IS LUKE AIR FORCE BASE
         DAVIS-MONTHAN IS DAVIS-MONTHAN AIR FORCE BASE
NAS    - NAVAL AIR STATION
         EL CENTRO NAS IS EL CENTRO NAVAL AIR STATION
N/A    - NOT AVAILABLE





USA.gov is the U.S. government's official web portal to all federal, state and local government web resources and services.